DECAYED

STARLINK-2649, 48680 (Decayed)

Orbit data source: Space-Track

STARLINK-2649, 48680 was a payload satellite owned by SpaceX/Seattle (US) in LEO that was launched on Wed, 26 May 2021 UTC via an FALCON 9 launch vehicle from the Air Force Eastern Test Range (AFETR). Payload-class satellites include a variety of spacecraft equipped with specific instruments for various scientific and technological missions. These include communications satellites like Starlink; space stations such as the ISS; scientific satellites like the Hubble; Earth observation satellites from companies like Planet Labs, Umbra, and HawkEye 360; GPS; miniature CubeSats for education and research; and military/defense satellites.

Not visible in the next 10 days
Identifier
48680, 2021-044AU
Orbit
Decayed
Country
Flag of USUS
Related business
Manufacturer
SpaceX/Seattle
Mission
Decayed Commercial Communications
Bus & Motor
STARLINK, Unknown motor
Mass
260 kg wet, ~248 kg dry
Launch date (UTC)
2021-05-26 (5 years ago)
Launch vehicle
FALCON 9
Launch site
Air Force Eastern Test Range (AFETR)
Object type
Payload
Rocket body
Debris
Shape & HBR
Box + 1 Pan, 10.1 m
Radar Cross Section
13.562 m², Large (>1 m²)

Expand to show TLE details & history
Last TLE update: 8 months ago

TLE from 8 months ago
0 STARLINK-2649
1 48680U 21044AU  25107.54457472  .04292763  12022-4  11394-2 0  9994
2 48680  53.0343 118.0178 0002668 269.6247 233.0366 16.27661380215832
Epoch: 2025-04-17T13:04Z
TLE epoch observation values (Epoch: 2025-04-17T13:04:11.255Z)
Latitude
29.0974°
Longitude
-128.55505°
Altitude
201.435 km
Speed
7.789 km/s
True Right ascension
18h 13m 37s
True Declination
28° 56' 21"
Sunlit
Object was in daylight at epoch
Visualization orbit readout
Latitude
Unknown
Longitude
Unknown
Altitude
Unknown
Speed
Unknown
Apparent Right ascension
Unknown
Apparent Declination
Unknown
Sunlit
N/A
Visualization observer readout
Local Sidereal Time
15:06:13
Azimuth
Unknown
Elevation
Unknown
Doppler factor
Unknown
Orbital elements
Apogee altitude
200.875 km
Perigee altitude
197.365 km
Semi-major axis
6,577.257 km
Eccentricity
0.00027
Inclination
53.0343°
RAAN
118.0178°
Arg. of periapsis
269.6247°
True anomaly
233.01218°
Mean anomaly
233.0366°
Eccentric anomaly
233.02439°
Mean motion
4.06889 °/min
Orbital period
88.48 mins
BSTAR
0.0011394
Loading maneuver chart data...
Computing Atmospheric mass density...
Loading historical data...
Loading historical data...
Loading historical data...
Loading historical data...
Loading historical data...
Loading historical data...
Loading historical data...

Documentation

Showing up to 5 results
|